Starlink 31000

operational
NORAD ID: 58488 Int'l Des: 2023-186 Owner: SPXS Country: US Constellation: starlink
LEOCIRCULAR

Starlink 31000について

説明を読み込み中...

リアルタイム位置

3D地球を読み込み中...

次回通過

高度履歴

Altitude vs Time

uPlot chart will show altitude changes over time

軌道要素

1 58488U 23186R 25307.92230686 .00000564 00000-0 56802-4 0 9996
2 58488 43.0033 30.7618 0001134 280.8260 79.2455 15.02533942106922
Epoch: Nov 3, 2025 • Age: 15 hours

現在のステータス

高度 561.4 km
速度 7.59 km/s
衛星直下点 36.63°N, 155.56°W
打ち上げ日 Dec 3, 2023
運用期間 1.9 years
タイプ internet

技術仕様

分類 Payload
質量 730.00 kg
乾燥質量 700.00 kg
総質量 730.00 kg
長さ 0.30 m
直径 4.10 m
スパン 29.00 m
形状 Box + pan
製造者 SPXS
バスタイプ Starlink V2M
フェーズステータス In Orbit
所有者/国 SPXS/US

大規模コンステレーション

Loading constellations...